Regional Weather Roundup
Issued by NWS

Home | Current Version | Previous Version | Graphics & Text | Print | Product List | Glossary On
Versions: 1 2 3 4 5 6 7 8 9 10 11 12 13 14 15 16 17 18 19 20 21 22 23 24 25 26 27 28 29 30 31 32 33 34 35 36 37 38 39 40 41 42 43 44 45 46 47 48 49 50
010
ASUS43 KOAX 301502
RWRNE

WEATHER ROUNDUP FOR NEBRASKA
NATIONAL WEATHER SERVICE OMAHA NE
1000 AM CDT FRI SEP 30 2016

NOTES: SATELLITE DATA IS BEING USED TO AUGMENT CLOUD COVER ABOVE
       12000 FEET.
       "FAIR" INDICATES FEW OR NO CLOUDS BELOW 12,000 FEET WITH NO
       SIGNIFICANT WEATHER AND/OR OBSTRUCTIONS TO VISIBILITY.

  * THESE STATIONS DO NOT REPORT WEATHER SUCH AS RAIN...SNOW OR FOG.

NEZ001>004-019>022-054>056-301600-
NEBRASKA PANHANDLE

CITY           SKY/WX    TMP DP  RH WIND       PRES   REMARKS
SCOTTSBLUFF    CLOUDY    53  41  63 SE7       30.20R
ALLIANCE       MOSUNNY   51  41  68 S14       30.19F
CHADRON        CLOUDY    56  41  57 S15       30.13F
KIMBALL        CLOUDY    51  44  76 W7        30.23S
SIDNEY         CLOUDY    50  41  71 SE8       30.23R
$$

NEZ057>060-069>072-079>082-301600-
SOUTHWEST NEBRASKA

CITY           SKY/WX    TMP DP  RH WIND       PRES   REMARKS
NORTH PLATTE   CLOUDY    55  47  74 SE6       30.26S
IMPERIAL       MOSUNNY   54  44  69 SE13      30.24R
LEXINGTON      CLOUDY    54  47  77 SE6       30.27F
MCCOOK         MOSUNNY   58  48  69 S10       30.25S
OGALLALA       MOSUNNY   54  46  72 S7        30.23F
$$

NEZ005>010-023>029-035>040-094-301600-
NORTH CENTRAL NEBRASKA

CITY           SKY/WX    TMP DP  RH WIND       PRES   REMARKS
VALENTINE      MOSUNNY   58  44  60 S15       30.22F
AINSWORTH      CLOUDY    57  48  71 S13       30.25S
BROKEN BOW     SUNNY     54  48  80 SE8       30.28S
O`NEILL        SUNNY     56  48  73 S7        30.30S
ORD            SUNNY     50  46  86 CALM      30.29F
THEDFORD       MOSUNNY   58  47  67 S16       30.26S
$$

NEZ041-046>049-061>064-073>077-083>087-301600-
SOUTH CENTRAL NEBRASKA

CITY           SKY/WX    TMP DP  RH WIND       PRES   REMARKS
GRAND ISLAND   SUNNY     54  48  80 CALM      30.31F
AURORA         SUNNY     57  50  77 SE3       30.31S
HASTINGS       SUNNY     60  47  61 S5        30.31F
HEBRON         SUNNY     54  48  81 CALM      30.30S
HOLDREGE       CLOUDY    58  48  71 SE7       30.29S
KEARNEY *      SUNNY     55  46  71 SE6       30.29F
YORK           SUNNY     59  50  72 E6        30.31S
$$

NEZ011>018-030>034-042>045-301600-
NORTHEAST NEBRASKA

CITY           SKY/WX    TMP DP  RH WIND       PRES   REMARKS
NORFOLK        SUNNY     55  48  77 SE5       30.32S
ALBION         SUNNY     53  47  79 SE3       30.31F
BLAIR          SUNNY     58  51  79 CALM      30.31R
FREMONT        SUNNY     57  50  78 CALM      30.32R
TEKAMAH        SUNNY     57  50  77 N5        30.31F
WAYNE            N/A     53  50  87 CALM      30.33S FOG
$$

NEZ050>053-065>068-078-088>093-301600-
SOUTHEAST NEBRASKA

CITY           SKY/WX    TMP DP  RH WIND       PRES   REMARKS
LINCOLN        SUNNY     58  50  75 CALM      30.32S
OMAHA EPPLEY   MOSUNNY   57  50  77 N7        30.30F
BEATRICE       SUNNY     59  52  77 CALM      30.30S
FALLS CITY     SUNNY     59  53  80 VRB3      30.27F
NEBRASKA CITY  SUNNY     60  49  68 CALM      30.29S
PLATTSMOUTH    SUNNY     59  49  68 CALM      30.30S
$$

NEZ044-045-051>053-067-301600-
OMAHA AREA

CITY           SKY/WX    TMP DP  RH WIND       PRES   REMARKS
OMAHA EPPLEY   MOSUNNY   57  50  77 N7        30.30F
BLAIR          SUNNY     58  51  79 CALM      30.31R
FREMONT        SUNNY     57  50  78 CALM      30.32R
MILLARD        SUNNY     59  51  73 CALM      30.30S
OFFUTT AFB     SUNNY     60  52  74 NE3       30.29S
PLATTSMOUTH    SUNNY     59  49  68 CALM      30.30S
WAHOO          FAIR      58  51  77 CALM      30.31S
$$




USA.gov is the U.S. government's official web portal to all federal, state and local government web resources and services.